TRA49E EHRD-LOWI

Flight info

Callsign TRA49E
Flight time 1h 13m
Altitude 37000
Route WOODY N872 NIK M624 BUB DCT LIRSU DCT KRH DCT BATUB M738 MADEB MADEB1B
Aircraft B738/M-SDE2E3FGHIJ1RWXYZ/LB1

Departure

Time 2026-05-05 17:56
Airport Rotterdam The Hague Airport (EHRD)

Arrival

Time 2026-05-05 19:10
Airport Innsbruck Airport (LOWI)
Time Latitude Longitude Altitude Speed Heading
2026-05-05 17:41 51.95111 4.43487 2 ft 0 kts 327°
2026-05-05 17:52 51.95122 4.43475 0 ft 5 kts 327°
2026-05-05 17:52 51.95152 4.43471 0 ft 4 kts 23°
2026-05-05 17:52 51.95201 4.43476 0 ft 11 kts 336°
2026-05-05 17:53 51.95234 4.43391 0 ft 10 kts 253°
2026-05-05 17:53 51.95189 4.43265 0 ft 14 kts 238°
2026-05-05 17:53 51.95138 4.43119 0 ft 16 kts 244°
2026-05-05 17:53 51.95126 4.42947 0 ft 16 kts 306°
2026-05-05 17:54 51.95197 4.42862 1 ft 8 kts 329°
2026-05-05 17:54 51.95233 4.42887 1 ft 5 kts 52°
2026-05-05 17:54 51.95236 4.42893 1 ft 0 kts 53°
2026-05-05 17:55 51.95298 4.43044 1 ft 40 kts 57°
2026-05-05 17:56 51.95558 4.43702 -1 ft 98 kts 57°
2026-05-05 17:56 51.96019 4.44867 2 ft 146 kts 57°
2026-05-05 17:56 51.96575 4.46324 423 ft 153 kts 57°
2026-05-05 17:56 51.97101 4.47904 865 ft 167 kts 59°
2026-05-05 17:57 51.97755 4.49567 1315 ft 184 kts 53°
2026-05-05 17:57 51.98250 4.50735 1635 ft 194 kts 54°
2026-05-05 17:57 51.98923 4.52688 2302 ft 204 kts 64°
2026-05-05 17:57 51.99500 4.54873 3040 ft 220 kts 65°
2026-05-05 17:58 52.00148 4.57373 3090 ft 255 kts 71°
2026-05-05 17:58 52.00180 4.60210 3046 ft 255 kts 104°
2026-05-05 17:58 51.99226 4.62602 3043 ft 258 kts 138°
2026-05-05 17:58 51.97147 4.64606 3033 ft 267 kts 151°
2026-05-05 17:59 51.96016 4.65500 3018 ft 267 kts 153°
2026-05-05 17:59 51.94257 4.66433 3015 ft 268 kts 172°
2026-05-05 17:59 51.92495 4.66183 3018 ft 271 kts 198°
2026-05-05 17:59 51.90927 4.64600 3014 ft 272 kts 228°
2026-05-05 18:00 51.89770 4.62182 3027 ft 272 kts 236°
2026-05-05 18:00 51.88708 4.59642 3022 ft 272 kts 238°
2026-05-05 18:00 51.87524 4.57251 3024 ft 272 kts 224°
2026-05-05 18:00 51.85984 4.55481 3021 ft 272 kts 206°
2026-05-05 18:01 51.84200 4.54469 3023 ft 272 kts 193°
2026-05-05 18:01 51.82365 4.53712 3013 ft 272 kts 193°
2026-05-05 18:01 51.80516 4.52970 3068 ft 282 kts 193°
2026-05-05 18:01 51.78580 4.52187 3904 ft 287 kts 193°
2026-05-05 18:02 51.76653 4.51393 4796 ft 285 kts 193°
2026-05-05 18:02 51.74744 4.50603 4885 ft 282 kts 193°
2026-05-05 18:02 51.72855 4.49825 4889 ft 279 kts 193°
2026-05-05 18:02 51.70980 4.49056 4890 ft 277 kts 194°
2026-05-05 18:03 51.69111 4.48291 4900 ft 277 kts 193°
2026-05-05 18:03 51.67254 4.47528 5002 ft 288 kts 194°
2026-05-05 18:03 51.65291 4.46720 5909 ft 290 kts 193°
2026-05-05 18:03 51.63355 4.45925 7039 ft 285 kts 194°
2026-05-05 18:04 51.61444 4.45142 8035 ft 283 kts 194°
2026-05-05 18:04 51.59521 4.44354 8873 ft 287 kts 194°
2026-05-05 18:04 51.57572 4.43557 9681 ft 291 kts 194°
2026-05-05 18:04 51.55594 4.42750 10478 ft 295 kts 194°
2026-05-05 18:05 51.53593 4.41937 11249 ft 298 kts 194°
2026-05-05 18:05 51.51570 4.41116 12036 ft 301 kts 193°
2026-05-05 18:05 51.49528 4.40288 12840 ft 304 kts 193°
2026-05-05 18:05 51.47471 4.39453 13621 ft 306 kts 194°
2026-05-05 18:06 51.45398 4.38607 14374 ft 309 kts 194°
2026-05-05 18:06 51.44016 4.38045 14860 ft 310 kts 194°
2026-05-05 18:06 51.41234 4.36899 15838 ft 314 kts 196°
2026-05-05 18:06 51.39197 4.35604 16551 ft 316 kts 204°
2026-05-05 18:07 51.37198 4.34095 17253 ft 319 kts 205°
2026-05-05 18:07 51.35188 4.32561 17935 ft 322 kts 205°
2026-05-05 18:07 51.33162 4.31013 18613 ft 324 kts 205°
2026-05-05 18:07 51.31114 4.29455 19279 ft 327 kts 205°
2026-05-05 18:08 51.29053 4.27893 19937 ft 330 kts 205°
2026-05-05 18:08 51.26997 4.26334 20572 ft 332 kts 205°
2026-05-05 18:08 51.24904 4.24746 21202 ft 335 kts 205°
2026-05-05 18:08 51.22790 4.23140 21816 ft 338 kts 205°
2026-05-05 18:09 51.20620 4.21680 22386 ft 340 kts 196°
2026-05-05 18:09 51.18291 4.21013 22866 ft 344 kts 182°
2026-05-05 18:09 51.15872 4.21318 22895 ft 351 kts 167°
2026-05-05 18:09 51.13620 4.22676 22910 ft 345 kts 152°
2026-05-05 18:10 51.11677 4.24891 22923 ft 345 kts 141°
2026-05-05 18:10 51.09843 4.27365 22901 ft 344 kts 141°
2026-05-05 18:10 51.08067 4.29800 22897 ft 329 kts 141°
2026-05-05 18:10 51.06372 4.32121 22890 ft 315 kts 141°
2026-05-05 18:11 51.04737 4.34334 22888 ft 305 kts 141°
2026-05-05 18:11 51.03129 4.36492 22897 ft 304 kts 141°
2026-05-05 18:11 51.01522 4.38650 22895 ft 306 kts 141°
2026-05-05 18:11 50.99869 4.40871 22953 ft 318 kts 141°
2026-05-05 18:12 50.98148 4.43184 23044 ft 331 kts 141°
2026-05-05 18:12 50.96357 4.45589 23122 ft 343 kts 141°
2026-05-05 18:12 50.94500 4.48080 23166 ft 356 kts 141°
2026-05-05 18:12 50.92578 4.50661 23213 ft 368 kts 141°
2026-05-05 18:13 50.90694 4.53482 23265 ft 378 kts 132°
2026-05-05 18:13 50.89128 4.56887 23351 ft 387 kts 122°
2026-05-05 18:13 50.87743 4.60637 23510 ft 400 kts 121°
2026-05-05 18:13 50.86375 4.64440 23867 ft 405 kts 121°
2026-05-05 18:14 50.84984 4.68340 24324 ft 408 kts 121°
2026-05-05 18:14 50.83577 4.72255 24794 ft 410 kts 121°
2026-05-05 18:14 50.82154 4.76171 25250 ft 412 kts 121°
2026-05-05 18:14 50.80721 4.80098 25701 ft 413 kts 121°
2026-05-05 18:15 50.79281 4.84040 26137 ft 415 kts 121°
2026-05-05 18:15 50.77838 4.87998 26541 ft 416 kts 121°
2026-05-05 18:15 50.76390 4.91971 26915 ft 418 kts 121°
2026-05-05 18:15 50.74934 4.95954 27294 ft 420 kts 121°
2026-05-05 18:16 50.73470 4.99945 27663 ft 421 kts 121°
2026-05-05 18:16 50.72016 5.03911 28027 ft 422 kts 121°
2026-05-05 18:16 50.70548 5.07908 28378 ft 423 kts 121°
2026-05-05 18:16 50.69071 5.11929 28700 ft 425 kts 121°
2026-05-05 18:17 50.67587 5.15960 29029 ft 425 kts 121°
2026-05-05 18:17 50.66097 5.19995 29349 ft 426 kts 121°
2026-05-05 18:17 50.64600 5.24035 29646 ft 427 kts 121°
2026-05-05 18:17 50.63106 5.28077 29944 ft 428 kts 121°
2026-05-05 18:18 50.61609 5.32128 30224 ft 428 kts 121°
2026-05-05 18:18 50.60126 5.36130 30492 ft 430 kts 121°
2026-05-05 18:18 50.58617 5.40187 30821 ft 429 kts 121°
2026-05-05 18:18 50.57110 5.44227 31178 ft 427 kts 121°
2026-05-05 18:19 50.55608 5.48251 31522 ft 426 kts 122°
2026-05-05 18:19 50.54112 5.52256 31867 ft 424 kts 122°
2026-05-05 18:19 50.52618 5.56245 32196 ft 423 kts 122°
2026-05-05 18:19 50.51126 5.60226 32551 ft 422 kts 122°
2026-05-05 18:20 50.49640 5.64188 32912 ft 420 kts 122°
2026-05-05 18:20 50.48159 5.68129 33236 ft 419 kts 122°
2026-05-05 18:20 50.46696 5.72007 33539 ft 418 kts 123°
2026-05-05 18:20 50.45218 5.75922 33861 ft 416 kts 122°
2026-05-05 18:21 50.43745 5.79826 34186 ft 415 kts 123°
2026-05-05 18:21 50.42276 5.83710 34488 ft 414 kts 123°
2026-05-05 18:21 50.40803 5.87597 34740 ft 414 kts 123°
2026-05-05 18:21 50.39328 5.91483 34952 ft 416 kts 123°
2026-05-05 18:22 50.37849 5.95375 35164 ft 416 kts 123°
2026-05-05 18:22 50.36363 5.99277 35374 ft 417 kts 123°
2026-05-05 18:22 50.34872 6.03186 35589 ft 418 kts 123°
2026-05-05 18:22 50.33380 6.07095 35807 ft 419 kts 123°
2026-05-05 18:23 50.31886 6.11005 36006 ft 419 kts 123°
2026-05-05 18:23 50.30407 6.14873 36196 ft 420 kts 123°
2026-05-05 18:23 50.28902 6.18798 36379 ft 421 kts 123°
2026-05-05 18:24 50.25847 6.26720 36500 ft 429 kts 124°
2026-05-05 18:24 50.22742 6.34783 36719 ft 434 kts 124°
2026-05-05 18:25 50.19613 6.42873 36824 ft 437 kts 124°
2026-05-05 18:25 50.15950 6.50392 36840 ft 436 kts 132°
2026-05-05 18:26 50.12071 6.57591 36818 ft 436 kts 133°
2026-05-05 18:26 50.08168 6.64778 36820 ft 433 kts 133°
2026-05-05 18:27 50.04303 6.71916 36817 ft 430 kts 133°
2026-05-05 18:27 50.00449 6.79007 36817 ft 428 kts 133°
2026-05-05 18:28 49.94664 6.89599 36836 ft 430 kts 133°
2026-05-05 18:28 49.90816 6.96632 36821 ft 431 kts 133°
2026-05-05 18:29 49.86935 7.03700 36828 ft 430 kts 133°
2026-05-05 18:29 49.83057 7.10743 36841 ft 430 kts 133°
2026-05-05 18:30 49.79166 7.17791 36841 ft 431 kts 133°
2026-05-05 18:30 49.75263 7.24842 36841 ft 431 kts 133°
2026-05-05 18:31 49.71393 7.31817 36843 ft 429 kts 133°
2026-05-05 18:31 49.67506 7.38802 36837 ft 429 kts 133°
2026-05-05 18:32 49.63611 7.45779 36845 ft 429 kts 134°
2026-05-05 18:32 49.59709 7.52756 36832 ft 429 kts 134°
2026-05-05 18:33 49.55809 7.59707 36834 ft 429 kts 134°
2026-05-05 18:33 49.51900 7.66655 36820 ft 429 kts 134°
2026-05-05 18:34 49.48024 7.73529 36829 ft 428 kts 134°
2026-05-05 18:34 49.44116 7.80441 36834 ft 429 kts 134°
2026-05-05 18:35 49.40200 7.87347 36830 ft 429 kts 134°
2026-05-05 18:35 49.36275 7.94249 36826 ft 429 kts 134°
2026-05-05 18:36 49.32346 8.01143 36835 ft 429 kts 134°
2026-05-05 18:36 49.28433 8.07992 36840 ft 430 kts 134°
2026-05-05 18:37 49.24485 8.14880 36836 ft 431 kts 134°
2026-05-05 18:37 49.20528 8.21770 36838 ft 431 kts 135°
2026-05-05 18:38 49.16561 8.28655 36837 ft 432 kts 135°
2026-05-05 18:38 49.12580 8.35549 36833 ft 433 kts 135°
2026-05-05 18:39 49.08592 8.42434 36836 ft 433 kts 135°
2026-05-05 18:39 49.04629 8.49261 36839 ft 433 kts 135°
2026-05-05 18:40 49.00622 8.56137 36841 ft 434 kts 136°
2026-05-05 18:40 48.95987 8.61844 36852 ft 428 kts 148°
2026-05-05 18:41 48.91052 8.66921 36851 ft 429 kts 149°
2026-05-05 18:41 48.86089 8.71962 36847 ft 429 kts 149°
2026-05-05 18:42 48.81158 8.77021 36842 ft 428 kts 149°
2026-05-05 18:42 48.76206 8.82075 36838 ft 429 kts 149°
2026-05-05 18:43 48.71245 8.87113 36842 ft 430 kts 149°
2026-05-05 18:43 48.66282 8.92151 36848 ft 430 kts 149°
2026-05-05 18:44 48.61347 8.97149 36845 ft 429 kts 149°
2026-05-05 18:44 48.56382 9.02161 36854 ft 429 kts 150°
2026-05-05 18:45 48.51407 9.07172 36853 ft 430 kts 150°
2026-05-05 18:45 48.46426 9.12183 36849 ft 430 kts 150°
2026-05-05 18:46 48.43955 9.14663 36676 ft 423 kts 150°
2026-05-05 18:46 48.41509 9.17115 36157 ft 423 kts 150°
2026-05-05 18:46 48.39061 9.19562 35645 ft 422 kts 150°
2026-05-05 18:46 48.36581 9.22034 35152 ft 434 kts 150°
2026-05-05 18:47 48.34081 9.24524 34664 ft 439 kts 150°
2026-05-05 18:47 48.31547 9.27058 34168 ft 435 kts 150°
2026-05-05 18:47 48.29037 9.29568 33665 ft 432 kts 150°
2026-05-05 18:47 48.26543 9.32053 33182 ft 429 kts 150°
2026-05-05 18:48 48.24060 9.34517 32677 ft 427 kts 150°
2026-05-05 18:48 48.21594 9.36960 32177 ft 424 kts 150°
2026-05-05 18:48 48.19137 9.39394 31662 ft 422 kts 150°
2026-05-05 18:48 48.16694 9.41814 31182 ft 420 kts 149°
2026-05-05 18:49 48.14264 9.44219 30690 ft 418 kts 149°
2026-05-05 18:49 48.11843 9.46610 30190 ft 416 kts 149°
2026-05-05 18:49 48.09428 9.48992 29694 ft 415 kts 149°
2026-05-05 18:49 48.07028 9.51358 29191 ft 412 kts 149°
2026-05-05 18:50 48.04654 9.53694 28698 ft 405 kts 149°
2026-05-05 18:50 48.02316 9.55996 28192 ft 399 kts 148°
2026-05-05 18:50 48.00061 9.58274 27698 ft 394 kts 147°
2026-05-05 18:50 47.97855 9.60670 27201 ft 390 kts 146°
2026-05-05 18:51 47.95703 9.63091 26706 ft 386 kts 145°
2026-05-05 18:51 47.93548 9.65487 26208 ft 386 kts 146°
2026-05-05 18:51 47.91372 9.67840 25714 ft 387 kts 146°
2026-05-05 18:51 47.89186 9.70167 25222 ft 387 kts 146°
2026-05-05 18:52 47.86995 9.72501 24721 ft 387 kts 146°
2026-05-05 18:52 47.84816 9.74842 24219 ft 386 kts 146°
2026-05-05 18:52 47.82644 9.77186 23902 ft 382 kts 145°
2026-05-05 18:52 47.80469 9.79532 23897 ft 391 kts 145°
2026-05-05 18:53 47.78232 9.81933 23893 ft 401 kts 145°
2026-05-05 18:53 47.75964 9.84362 23886 ft 400 kts 145°
2026-05-05 18:53 47.73745 9.86735 23891 ft 398 kts 145°
2026-05-05 18:53 47.71490 9.89146 23893 ft 400 kts 145°
2026-05-05 18:54 47.69232 9.91557 23896 ft 399 kts 145°
2026-05-05 18:54 47.66987 9.93954 23840 ft 394 kts 146°
2026-05-05 18:54 47.64773 9.96316 23396 ft 391 kts 146°
2026-05-05 18:54 47.62556 9.98675 22760 ft 394 kts 146°
2026-05-05 18:55 47.60321 10.01050 22111 ft 396 kts 146°
2026-05-05 18:55 47.58078 10.03435 21485 ft 398 kts 146°
2026-05-05 18:55 47.55862 10.05788 21203 ft 384 kts 146°
2026-05-05 18:55 47.53734 10.08049 20949 ft 369 kts 147°
2026-05-05 18:56 47.51696 10.10210 20913 ft 354 kts 147°
2026-05-05 18:56 47.49709 10.12310 20906 ft 350 kts 147°
2026-05-05 18:56 47.47743 10.14383 20647 ft 346 kts 147°
2026-05-05 18:56 47.45779 10.16452 20168 ft 347 kts 147°
2026-05-05 18:57 47.43806 10.18528 19646 ft 350 kts 148°
2026-05-05 18:57 47.41804 10.20489 19137 ft 351 kts 151°
2026-05-05 18:57 47.39723 10.22344 18834 ft 344 kts 153°
2026-05-05 18:57 47.37702 10.24103 18549 ft 333 kts 153°
2026-05-05 18:58 47.35734 10.25853 18111 ft 328 kts 152°
2026-05-05 18:58 47.33896 10.27795 17701 ft 326 kts 140°
2026-05-05 18:58 47.32507 10.30455 17250 ft 332 kts 121°
2026-05-05 18:58 47.31761 10.33686 16907 ft 335 kts 107°
2026-05-05 18:59 47.31256 10.37073 16490 ft 342 kts 105°
2026-05-05 18:59 47.30812 10.40484 16022 ft 344 kts 104°
2026-05-05 18:59 47.30380 10.43931 15550 ft 340 kts 104°
2026-05-05 18:59 47.29934 10.47312 15070 ft 333 kts 105°
2026-05-05 19:00 47.29471 10.50637 14516 ft 330 kts 105°
2026-05-05 19:00 47.29009 10.53893 14214 ft 320 kts 105°
2026-05-05 19:00 47.28653 10.57080 13852 ft 313 kts 94°
2026-05-05 19:00 47.28732 10.60215 13512 ft 295 kts 90°
2026-05-05 19:01 47.28858 10.63079 13255 ft 266 kts 89°
2026-05-05 19:01 47.29001 10.65680 12944 ft 246 kts 89°
2026-05-05 19:01 47.29137 10.68158 12472 ft 239 kts 89°
2026-05-05 19:01 47.29261 10.70528 12069 ft 231 kts 89°
2026-05-05 19:02 47.29378 10.72842 11674 ft 222 kts 90°
2026-05-05 19:02 47.29491 10.75126 11331 ft 229 kts 89°
2026-05-05 19:02 47.29606 10.77489 10963 ft 232 kts 89°
2026-05-05 19:02 47.29726 10.79838 10550 ft 227 kts 89°
2026-05-05 19:03 47.29842 10.82126 10149 ft 220 kts 88°
2026-05-05 19:03 47.29953 10.84323 9781 ft 212 kts 88°
2026-05-05 19:03 47.30060 10.86465 9466 ft 208 kts 88°
2026-05-05 19:03 47.30163 10.88565 9200 ft 204 kts 87°
2026-05-05 19:04 47.30265 10.90668 8899 ft 207 kts 88°
2026-05-05 19:04 47.30367 10.92788 8577 ft 208 kts 87°
2026-05-05 19:04 47.30467 10.94881 8255 ft 207 kts 88°
2026-05-05 19:04 47.30570 10.96977 7926 ft 205 kts 87°
2026-05-05 19:05 47.30671 10.99066 7602 ft 204 kts 87°
2026-05-05 19:05 47.30772 11.01154 7279 ft 203 kts 87°
2026-05-05 19:05 47.30871 11.03218 6954 ft 202 kts 86°
2026-05-05 19:05 47.30968 11.05270 6632 ft 200 kts 86°
2026-05-05 19:06 47.30869 11.07295 6327 ft 197 kts 105°
2026-05-05 19:06 47.30413 11.09187 6029 ft 197 kts 117°
2026-05-05 19:06 47.29822 11.11014 5696 ft 197 kts 120°
2026-05-05 19:06 47.29239 11.12749 5373 ft 186 kts 120°
2026-05-05 19:07 47.28675 11.14430 5074 ft 180 kts 120°
2026-05-05 19:07 47.28127 11.16075 4788 ft 179 kts 118°
2026-05-05 19:07 47.27574 11.17742 4513 ft 182 kts 118°
2026-05-05 19:07 47.27022 11.19412 4226 ft 178 kts 118°
2026-05-05 19:08 47.26504 11.20992 3853 ft 165 kts 118°
2026-05-05 19:08 47.26023 11.22455 3485 ft 153 kts 118°
2026-05-05 19:08 47.25578 11.23803 3254 ft 143 kts 117°
2026-05-05 19:08 47.25242 11.25174 3051 ft 143 kts 104°
2026-05-05 19:09 47.25191 11.26591 2909 ft 132 kts 94°
2026-05-05 19:09 47.25266 11.27902 2565 ft 123 kts 89°
2026-05-05 19:09 47.25377 11.29217 2494 ft 127 kts 91°
2026-05-05 19:09 47.25555 11.30594 2459 ft 148 kts 81°
2026-05-05 19:10 47.25748 11.32023 2212 ft 131 kts 90°
2026-05-05 19:10 47.25913 11.33338 1911 ft 123 kts 81°
2026-05-05 19:10 47.25988 11.34088 1917 ft 30 kts 82°
2026-05-05 19:10 47.26016 11.34379 1913 ft 29 kts 81°
2026-05-05 19:11 47.26060 11.34752 1908 ft 44 kts 81°
2026-05-05 19:11 47.26103 11.35123 1915 ft 21 kts 79°
2026-05-05 19:11 47.26047 11.35264 1914 ft 18 kts 171°
2026-05-05 19:11 47.25941 11.35292 1914 ft 10 kts 173°
2026-05-05 19:12 47.25899 11.35236 1911 ft 9 kts 256°
2026-05-05 19:12 47.25895 11.35202 1914 ft 2 kts 260°
2026-05-05 19:12 47.25884 11.35173 1914 ft 3 kts 223°
2026-05-05 19:12 47.25860 11.35168 1914 ft 4 kts 178°
2026-05-05 19:13 47.25836 11.35172 1906 ft 0 kts 171°